When you browse on this site, cookies collect data to enhance your experience and personalize the content and advertising you see.
Visit our Privacy Policy to learn more. By continuing to use the site, you agree to this use of cookies and data.
  • In Lithuania
  • List of Countries
  • For 7 days
  • Water Temperature
  • Satellite Maps
  • Weather Map
  • Weather Widgets
  • user-avatar
    Login

    Hourly Weather Gold Coast

    Today, 24 June, Monday

    Time Temperature Precipitation Wind Pressure Humidity
    00:00 +10°C° 0.2 mm 4 mps 762 mmHg 95%
    01:00 +10°C° 0.2 mm 4 mps 762 mmHg 96%
    02:00 +10°C° 0.1 mm 4 mps 762 mmHg 96%
    03:00 +10°C° 0.1 mm 4 mps 762 mmHg 96%
    04:00 +10°C° 0 mm 4 mps 761 mmHg 96%
    05:00 +10°C° 0 mm 4 mps 762 mmHg 96%
    06:00 +10°C° 0 mm 4 mps 762 mmHg 95%
    07:00 +10°C° 0 mm 4 mps 762 mmHg 94%
    08:00 +12°C° 0 mm 5 mps 762 mmHg 84%
    09:00 +14°C° 0 mm 5 mps 763 mmHg 74%
    10:00 +18°C° 0 mm 4 mps 763 mmHg 62%
    11:00 +17°C° 0.4 mm 4 mps 763 mmHg 67%
    12:00 +16°C° 0.4 mm 5 mps 762 mmHg 73%
    13:00 +16°C° 0.4 mm 5 mps 762 mmHg 78%
    14:00 +15°C° 0.9 mm 6 mps 762 mmHg 82%
    15:00 +14°C° 0.9 mm 6 mps 762 mmHg 85%
    16:00 +14°C° 0 mm 5 mps 763 mmHg 86%
    17:00 +13°C° 1.2 mm 5 mps 763 mmHg 89%
    18:00 +12°C° 1.2 mm 5 mps 763 mmHg 93%
    19:00 +10°C° 1.2 mm 5 mps 764 mmHg 96%
    20:00 +10°C° 0.4 mm 5 mps 764 mmHg 96%
    21:00 +10°C° 0.4 mm 5 mps 764 mmHg 95%
    22:00 +12°C° 0.4 mm 5 mps 764 mmHg 95%
    23:00 +12°C° 0.2 mm 5 mps 764 mmHg 95%

    Tomorrow, 25 June, Tuesday

    Time Temperature Precipitation Wind Pressure Humidity
    00:00 +10°C° 0.2 mm 5 mps 764 mmHg 96%
    01:00 +11°C° 0.2 mm 4 mps 764 mmHg 97%
    02:00 +10°C° 0.5 mm 5 mps 764 mmHg 96%
    03:00 +12°C° 0.5 mm 5 mps 764 mmHg 96%
    04:00 +12°C° 0.5 mm 5 mps 764 mmHg 96%
    05:00 +12°C° 0.3 mm 5 mps 764 mmHg 96%
    06:00 +12°C° 0.3 mm 5 mps 765 mmHg 96%
    07:00 +12°C° 0.3 mm 5 mps 765 mmHg 96%
    08:00 +14°C° 0.2 mm 5 mps 765 mmHg 90%
    09:00 +15°C° 0.2 mm 6 mps 765 mmHg 83%
    10:00 +17°C° 0.2 mm 6 mps 766 mmHg 76%
    11:00 +17°C° 0.3 mm 6 mps 765 mmHg 74%
    12:00 +19°C° 0.3 mm 6 mps 765 mmHg 72%
    13:00 +19°C° 0.3 mm 6 mps 764 mmHg 71%
    14:00 +19°C° 0.4 mm 6 mps 764 mmHg 73%
    15:00 +17°C° 0.4 mm 6 mps 765 mmHg 76%
    16:00 +17°C° 0.4 mm 6 mps 765 mmHg 78%
    17:00 +16°C° 0.4 mm 6 mps 765 mmHg 83%
    18:00 +15°C° 0.4 mm 5 mps 765 mmHg 88%
    19:00 +14°C° 0.4 mm 5 mps 766 mmHg 93%
    20:00 +13°C° 0.3 mm 5 mps 766 mmHg 93%
    21:00 +13°C° 0.3 mm 5 mps 766 mmHg 94%
    22:00 +13°C° 0.3 mm 4 mps 767 mmHg 94%
    23:00 +13°C° 0.1 mm 4 mps 766 mmHg 94%

    Day after tomorrow, 26 June, Wednesday

    Time Temperature Precipitation Wind Pressure Humidity
    00:00 +13°C° 0.1 mm 4 mps 766 mmHg 94%
    01:00 +13°C° 0.1 mm 4 mps 766 mmHg 94%
    02:00 +12°C° 0.1 mm 4 mps 766 mmHg 95%
    03:00 +12°C° 0.1 mm 4 mps 766 mmHg 96%
    04:00 +12°C° 0.1 mm 4 mps 766 mmHg 97%
    05:00 +13°C° 0.1 mm 5 mps 766 mmHg 96%
    06:00 +13°C° 0.1 mm 5 mps 767 mmHg 96%
    07:00 +13°C° 0.1 mm 5 mps 767 mmHg 95%
    08:00 +14°C° 0.2 mm 5 mps 767 mmHg 90%
    09:00 +15°C° 0.2 mm 5 mps 768 mmHg 85%
    10:00 +16°C° 0.2 mm 5 mps 768 mmHg 81%
    11:00 +17°C° 0.4 mm 5 mps 767 mmHg 78%
    12:00 +17°C° 0.4 mm 5 mps 767 mmHg 76%
    13:00 +19°C° 0.4 mm 5 mps 766 mmHg 74%
    14:00 +17°C° 0.4 mm 5 mps 766 mmHg 77%
    15:00 +17°C° 0.4 mm 5 mps 766 mmHg 80%
    16:00 +16°C° 0.4 mm 5 mps 766 mmHg 84%
    17:00 +15°C° 0.1 mm 5 mps 767 mmHg 86%
    18:00 +14°C° 0.1 mm 5 mps 767 mmHg 89%
    19:00 +13°C° 0.1 mm 5 mps 767 mmHg 91%
    20:00 +13°C° 0.3 mm 5 mps 768 mmHg 92%
    21:00 +13°C° 0.3 mm 5 mps 768 mmHg 92%
    22:00 +13°C° 0.3 mm 5 mps 768 mmHg 92%
    23:00 +13°C° 0.1 mm 5 mps 768 mmHg 93%

    27 June, Thursday

    Time Temperature Precipitation Wind Pressure Humidity
    00:00 +13°C° 0.1 mm 5 mps 768 mmHg 93%
    01:00 +13°C° 0.1 mm 5 mps 768 mmHg 93%
    02:00 +13°C° 0.2 mm 5 mps 768 mmHg 94%
    03:00 +13°C° 0.2 mm 5 mps 767 mmHg 94%
    04:00 +13°C° 0.2 mm 5 mps 767 mmHg 95%
    05:00 +13°C° 0.2 mm 5 mps 768 mmHg 95%
    06:00 +13°C° 0.2 mm 5 mps 768 mmHg 94%
    07:00 +13°C° 0.2 mm 5 mps 768 mmHg 94%
    08:00 +14°C° 0.1 mm 5 mps 768 mmHg 87%
    09:00 +16°C° 0.1 mm 5 mps 769 mmHg 80%
    10:00 +19°C° 0.1 mm 6 mps 769 mmHg 74%
    11:00 +19°C° 0.3 mm 5 mps 768 mmHg 73%
    12:00 +19°C° 0.3 mm 5 mps 768 mmHg 73%
    13:00 +20°C° 0.3 mm 5 mps 767 mmHg 73%
    14:00 +19°C° 0.5 mm 5 mps 767 mmHg 75%
    15:00 +19°C° 0.5 mm 5 mps 767 mmHg 77%
    16:00 +17°C° 0.5 mm 5 mps 767 mmHg 79%
    17:00 +16°C° 0.5 mm 5 mps 767 mmHg 84%
    18:00 +15°C° 0.5 mm 5 mps 768 mmHg 89%
    19:00 +14°C° 0.5 mm 4 mps 768 mmHg 94%
    20:00 +14°C° 0.3 mm 4 mps 768 mmHg 94%
    21:00 +13°C° 0.3 mm 4 mps 768 mmHg 95%
    22:00 +13°C° 0.3 mm 4 mps 769 mmHg 95%
    23:00 +13°C° 0.3 mm 4 mps 769 mmHg 95%

    28 June, Friday

    Time Temperature Precipitation Wind Pressure Humidity
    00:00 +13°C° 0.3 mm 4 mps 768 mmHg 96%
    01:00 +13°C° 0.3 mm 4 mps 768 mmHg 96%
    02:00 +13°C° 0.3 mm 4 mps 768 mmHg 95%
    03:00 +13°C° 0.3 mm 5 mps 768 mmHg 94%
    04:00 +14°C° 0.3 mm 5 mps 767 mmHg 93%
    05:00 +13°C° 0 mm 5 mps 768 mmHg 93%
    06:00 +13°C° 0 mm 5 mps 768 mmHg 93%
    07:00 +12°C° 0 mm 5 mps 768 mmHg 93%
    08:00 +14°C° 0.1 mm 5 mps 768 mmHg 84%
    09:00 +16°C° 0.1 mm 6 mps 768 mmHg 75%
    10:00 +19°C° 0.1 mm 6 mps 768 mmHg 66%
    11:00 +19°C° 0.2 mm 6 mps 768 mmHg 67%
    12:00 +20°C° 0.2 mm 6 mps 767 mmHg 69%
    13:00 +20°C° 0.2 mm 5 mps 767 mmHg 70%
    14:00 +20°C° 0.2 mm 5 mps 767 mmHg 71%
    15:00 +19°C° 0.2 mm 5 mps 766 mmHg 72%
    16:00 +19°C° 0.2 mm 5 mps 766 mmHg 73%
    17:00 +17°C° 0.1 mm 5 mps 766 mmHg 79%
    18:00 +16°C° 0.1 mm 5 mps 766 mmHg 85%
    19:00 +14°C° 0.1 mm 5 mps 767 mmHg 92%
    20:00 +14°C° 0.1 mm 5 mps 767 mmHg 92%
    21:00 +14°C° 0.1 mm 5 mps 767 mmHg 93%
    22:00 +14°C° 0.1 mm 5 mps 767 mmHg 93%
    23:00 +13°C° 0.1 mm 5 mps 767 mmHg 93%

    29 June, Saturday

    Time Temperature Precipitation Wind Pressure Humidity
    00:00 +13°C° 0.1 mm 5 mps 766 mmHg 94%
    01:00 +13°C° 0.1 mm 5 mps 766 mmHg 94%
    02:00 +13°C° 0.1 mm 5 mps 766 mmHg 94%
    03:00 +14°C° 0.1 mm 5 mps 765 mmHg 94%
    04:00 +14°C° 0.1 mm 5 mps 765 mmHg 94%
    05:00 +14°C° 0.1 mm 4 mps 765 mmHg 95%
    06:00 +13°C° 0.1 mm 4 mps 765 mmHg 95%
    07:00 +13°C° 0.1 mm 4 mps 765 mmHg 96%
    08:00 +15°C° 0.2 mm 4 mps 765 mmHg 90%
    09:00 +18°C° 0.2 mm 4 mps 765 mmHg 85%
    10:00 +19°C° 0.2 mm 4 mps 765 mmHg 80%
    11:00 +20°C° 0.4 mm 4 mps 765 mmHg 79%
    12:00 +20°C° 0.4 mm 4 mps 764 mmHg 78%
    13:00 +21°C° 0.4 mm 4 mps 764 mmHg 78%
    14:00 +20°C° 0.2 mm 4 mps 763 mmHg 80%
    15:00 +20°C° 0.2 mm 4 mps 763 mmHg 83%
    16:00 +19°C° 0.2 mm 4 mps 762 mmHg 86%
    17:00 +18°C° 0.3 mm 4 mps 763 mmHg 88%
    18:00 +17°C° 0.3 mm 3 mps 763 mmHg 91%
    19:00 +16°C° 0.3 mm 3 mps 763 mmHg 94%
    20:00 +16°C° 0.3 mm 3 mps 763 mmHg 94%
    21:00 +16°C° 0.3 mm 3 mps 763 mmHg 95%
    22:00 +15°C° 0.3 mm 2 mps 763 mmHg 95%
    23:00 +15°C° 0.2 mm 2 mps 762 mmHg 95%
    Show more